Airfield :
LOGIN :

Register | Disclaimer

   EN    FR    IT 

 










Legend :    VFR   Marginal VFR   IFR   Intensive IFR   Very Intensive IFR
Visi :
Ceiling :
>= 8 km
>= 3000ft
5 to 8 km
1000 to 3000 ft
1500m to 5 km
500 to 1000 ft
800 to 1500m
200 to 500 ft
< 800m
< 200 ft
Symbols :   Thunderstorms  Fog  Heavy snow  Heavy precipitations  Wind > 20 kt
SIGMETs :     Misc.  Thunderstorms  Icing  Turbulence  Mountain Waves  Volcanic Ashes






- Airport Elevation : 768 ft
- IATA code : MXP


LIMC - Milano Malpensa

EXPIRED METARs :
  • 280250Z VRB02KT 8000 BKN060 06/04 Q1021 NOSIG
  • 280220Z 04002KT 8000 BKN060 06/04 Q1021 NOSIG
  • 280150Z 03003KT 9999 SCT060 05/04 Q1022 NOSIG
  • 272220Z VRB02KT CAVOK 04/03 Q1023 NOSIG

TAF TAF LIMC
Valid from the 28 at 00:00 until the 29 at 06:00 UTC


272300Z 2800/2906 VRB05KT 9999 SCT100
TEMPO 2800/2808 4000 BCFG



MET'MAP, your aeronautical weather chart ! - Copyright ORBIFLY December 2007 - Disclaimer

ORBIFLY MET'MAP TEAM :

Programming & Development : Alexandra Zaïnal
Original concept : Baudouin d'Aumeries
Technical & hardware support : Manuel Goepfert
Assistance : Marc-Olivier Méhu




SOURCES & CREDITS :

   NOAA